Gold Country Challenge - Toss 22 - 55 Miles

Station: Milton CA - T Race

Distance: 54.57 Miles    

Release: 14-Oct-2021 07:37

Weather Release: Clear/Cool    Arrival: Clear/Cool

Wind at Release: N 4-7     Wind at Arrival: NE 5-8

Temp at Release: 45°    Temp at Arrival: °

Lofts: 84

Birds: 181

Clocked: 181

Light headwind with clear skies. Next toss 72 Miles probably Saturday
Drops Pos Breeder Pigeon Name Color Sex Ent Arrival Speed To Win Elg PdChampAOC
1 Banat Loft - IL 2152-AU21-AA BC H 1 08:47:17.00 1366.515 00:00:00 Yes
2 Genesis Syndicate Loft - AZ 0205-AU21-GENS BC H 1 08:47:19.20 1365.802 00:00:02 Yes
3 Cloux Loft - CO 35001-AU21-AA BB H 1 08:47:39.10 1359.390 00:00:22 Yes
4 A P C Loft - TX 0287-AU21-APC BB H 1 08:47:44.00 1357.821 00:00:27 Yes
5 RC Manaois Family Loft - NV 46274-AU21-ARPU BC H 1 08:47:44.80 1357.565 00:00:28 Yes
6 Watson & Williams - NV 20230-AU21-JEDD BB H 1 08:47:48.30 1356.447 00:00:31 Yes
7 All Glory To God - NM 0212-AU21-JEDD BC H 1 08:47:49.90 1355.936 00:00:33 Yes
8 H & H Flying Circus - CA 0402-AU21-ML BB H 1 08:47:50.80 1355.649 00:00:34 Yes
9 R & D Racing 2 - ON 1833-AU21-AA BB H 1 08:47:51.90 1355.298 00:00:35 Yes
10 Sierra Ranch - CA 1067-AU21-AUB Arizona BBWF H 1 08:47:54.10 1354.597 00:00:37 Yes
11 B S Lofts - CA 0355-AU21-TOP 825 & 26 BC H 1 08:47:54.50 1354.470 00:00:38 Yes
12 SinghFamilyLoft - CA 2151-AU21-SING BCSP H 1 08:47:55.10 1354.279 00:00:38 Yes
13 Scm Lofts - CA 16727-AU21-JEDD BB H 1 08:47:55.80 1354.056 00:00:39 Yes
14 SuperStar Loft - TX 0057-AU21-DUBJ 2353 x 26 BB H 1 08:47:58.30 1353.261 00:00:41 Yes
15 RC Manaois Family Loft - NV 46299-AU21-ARPU DC H 2 08:48:07.40 1350.375 00:00:50 Yes
16 Christopher Loft - UT 0046-AU21-GS BBWF H 1 08:48:07.90 1350.217 00:00:51 Yes
17 Erwin Racing Loft - CA 0548-AU21-HDC DC H 1 08:48:15.50 1347.817 00:00:59 Yes
18 Fleet Washington - DC 2124-AU21-FLTW BCWF H 1 08:48:16.90 1347.376 00:01:00 Yes
19 Erwin Racing Loft - CA 7027-AU21-BON BB H 2 08:48:18.80 1346.778 00:01:02 Yes
20 Baptista - IL 0196-AU21-BAPT BB H 1 08:48:19.30 1346.620 00:01:02 Yes
21 C and W Loft - CA 36426-AU21-JEDD BB H 1 08:48:20.50 1346.243 00:01:04 Yes
22 Sparks Trio Syn - NV 0370-AU21-RENO Palma BB H 1 08:48:21.30 1345.991 00:01:04 Yes
23 R & D Racing 2 - ON 19245-AU21-ARPU SMK H 2 08:48:23.10 1345.426 00:01:06 Yes
24 Peters - GA 0369-AU21-NA 369 MONSTER KILLER-3 BC H 1 08:48:27.00 1344.202 00:01:10 Yes
25 Jacks Loft - CA 16719-AU21-JEDD BC H 1 08:48:29.80 1343.324 00:01:13 Yes
25 John V Partridge - CA 0302-AU21-PASO Kissin Kousin - Star BB H 1 08:48:29.80 1343.324 00:01:13 Yes
27 Sextons Loft - IA 0210-AU21-DMI THOR BC C 1 08:48:30.80 1343.011 00:01:14 Yes
28 SinghFamilyLoft - CA 2147-AU21-SING BB H 2 08:48:31.10 1342.917 00:01:14 Yes
29 A P C Loft - TX 0027-AU21-APC RC H 2 08:48:33.10 1342.292 00:01:16 Yes
30 Rab Loft - CA 11513-AU21-MAN BC H 1 08:48:34.80 1341.760 00:01:18 Yes
31 Sierra Ranch - CA 1017-AU21-AUB The Bumper BB H 2 08:48:35.90 1341.417 00:01:19 Yes
32 Bieche Lofts - CA 1011-AU21-BIE BB H 1 08:48:38.20 1340.699 00:01:21 Yes
32 Denis Eastwood - CA 23640-AU21-JEDD BBSP H 1 08:48:38.20 1340.699 00:01:21 Yes
34 Kereru Whare - CA 4333-AU21-FSC MLY H 1 08:48:41.80 1339.577 00:01:25 Yes
35 Okie Shuffle Loft - WI 0430-AU21-VITA BB H 1 08:48:42.30 1339.421 00:01:25 Yes
36 Neven Batinic - CA 7508-AU21-FOYS BB H 1 08:48:42.60 1339.328 00:01:26 Yes
37 Fleet Washington - DC 2138-AU21-FLTW BBSP H 2 08:48:43.00 1339.203 00:01:26 Yes
38 Bieche Lofts - CA 1037-AU21-BIE BC H 2 08:48:44.00 1338.892 00:01:27 Yes
39 Okie Shuffle Loft - WI 0424-AU21-VITA BBSP H 2 08:48:45.90 1338.301 00:01:29 Yes
40 Kfly Racing Pigeon Loft - ID 2113-AU21-KFLY Giraffe X Classic Eagle BB H 1 08:48:47.70 1337.742 00:01:31 Yes
41 Cloux Loft - CO 35100-AU21-AA BC H 2 08:48:49.10 1337.308 00:01:32 Yes
42 Tucson Triple Challenge - AZ 11996-AU21-JEDD BB H 1 08:48:49.20 1337.277 00:01:32 Yes
43 Genesis Syndicate Loft - AZ 0225-AU21-GENS BB H 2 08:48:49.50 1337.183 00:01:33 Yes
44 Denis Eastwood - CA 23624-AU21-JEDD BBSP H 2 08:48:50.00 1337.028 00:01:33 Yes
45 R & D Racing 2 - ON 7505-CU21-CRPU BC H 3 08:48:50.30 1336.935 00:01:33 Yes
46 H & H Flying Circus - CA 0403-AU21-ML BB H 2 08:48:51.20 1336.656 00:01:34 Yes
47 G & J Lofts - CA 0004-AU21-GJ Justice BB H 1 08:48:51.70 1336.501 00:01:35 Yes
48 R & D Racing 2 - ON 7517-CU21-CRPU BBWF H 4 08:48:52.20 1336.346 00:01:35 Yes
49 Sextons Loft - IA 0217-AU21-DMI GENERAL PATTON BB C 2 08:48:53.00 1336.098 00:01:36 Yes
50 Omelio Perez - NM 21334-AU21-NMRP BB H 1 08:48:53.80 1335.851 00:01:37 Yes
51 PNWC - ID 1069-AU21-PNWC “PAIR #23” BB H 1 08:48:57.20 1334.798 00:01:40 Yes
52 Sierra Ranch - CA 1034-AU21-AUB Nucash BB H 3 08:49:00.70 1333.717 00:01:44 Yes
53 E & K Loft - TX 0304-AU21-EK BLK H 1 08:49:01.20 1333.563 00:01:44 Yes
54 Roger Salvi - CA 0104-AU21-RBPC BB H 1 08:49:02.20 1333.254 00:01:45 Yes
55 Denis Eastwood - CA 23637-AU21-JEDD BBWS H 3 08:49:02.60 1333.131 00:01:46 Yes
56 Kfly Racing Pigeon Loft - ID 2139-AU21-KFLY KonRuby X Miss Fletcher BC H 2 08:49:03.20 1332.946 00:01:46 Yes
57 Racing Pigeon Mall - WA 0107-AU21-RPM Jos BBSP H 1 08:49:03.60 1332.823 00:01:47 Yes
58 Bieche Lofts - CA 1083-AU21-BIE MLY H 3 08:49:04.60 1332.514 00:01:48 Yes
59 R & M Lofts - TX 0302-AU21-WACO BB H 1 08:49:06.50 1331.929 00:01:50 Yes
60 Cloux Loft - CO 21962-AU21-FH BBSP H 3 08:49:08.00 1331.468 00:01:51 Yes
61 Duane Gragg - CA 0308-AU21-AUB BC H 1 08:49:10.90 1330.576 00:01:54 Yes
62 WŸŁØft - CA 25223-AU21-AA Spock 41118/2 DC C 1 08:49:13.00 1329.931 00:01:56 Yes
63 Peters - GA 0204-IF21-CGO 204 MONSTER KILLER-2 BB H 2 08:49:13.40 1329.808 00:01:56 Yes
64 Erwin Racing Loft - CA 7025-AU21-BON GRIZ H 3 08:49:13.70 1329.716 00:01:57 Yes
65 Sextons Loft - IA 0213-AU21-DMI BRAVE HEART BB H 3 08:49:17.40 1328.582 00:02:00 Yes
66 Denis Eastwood - CA 23631-AU21-JEDD BBSP H 4 08:49:17.90 1328.429 00:02:01 Yes
67 Rab Loft - CA 11020-AU21-MAN BB H 2 08:49:19.20 1328.031 00:02:02 Yes
68 Dads Loft - CA 0340-AU21-LAKE BC H 1 08:49:20.10 1327.756 00:02:03 Yes
69 Sparks Trio Syn - NV 0322-AU21-RENO Rosa BBWF H 2 08:49:20.70 1327.572 00:02:04 Yes
70 House Of Paine - CA 1103-AU21-HOP DBJ10xCVR5336 BB H 1 08:49:20.80 1327.541 00:02:04 Yes
71 Denis Eastwood - CA 23634-AU21-JEDD BC H 5 08:49:21.60 1327.297 00:02:05 Yes
72 Denis Eastwood - CA 23645-AU21-JEDD BCSP H 6 08:49:23.20 1326.808 00:02:06 Yes
73 Ponce & H. Padilla - CA 1640-AU21-MTZ BB H 1 08:49:24.30 1326.472 00:02:07 Yes
74 John V Partridge - CA 0252-AU21-PASO Voyager Star BB H 2 08:49:32.70 1323.912 00:02:16 Yes
75 A P C Loft - TX 0049-AU21-APC BB H 3 08:49:35.30 1323.122 00:02:18 Yes
76 A P C Loft - TX 0052-AU21-APC BB H 4 08:49:36.60 1322.727 00:02:20 Yes
77 Kereru Whare - CA 4313-AU21-FSC BB H 2 08:49:37.10 1322.575 00:02:20 Yes
78 Salsloft.Com & Sons - UT 0073-IF21-SALS RSMK H 1 08:49:40.40 1321.574 00:02:23 Yes
79 Silicon Valley Syndicate - CA 21052-AU21-SVS DCSP H 1 08:49:40.70 1321.483 00:02:24 Yes
80 G & J Lofts - CA 0002-AU21-GJ Freedom BB H 2 08:49:42.60 1320.908 00:02:26 Missing
81 Salvicon - CA 0102-AU21-RBPC BB H 1 08:49:47.20 1319.516 00:02:30 Yes
82 Sierra Ranch - CA 1062-AU21-AUB Gold Dust BC H 4 08:49:47.40 1319.456 00:02:30 Yes
83 Omelio Perez - NM 14730-AU21-FOYS BB H 2 08:49:48.50 1319.124 00:02:32 Yes
84 Guinto-Hedderson - CA 6205-AU21-FSC BB H 1 08:49:54.60 1317.284 00:02:38 Yes
85 Omelio Perez - NM 21343-AU21-NMRP BB H 3 08:49:55.30 1317.074 00:02:38 Yes
86 R & D Racing 2 - ON 1822-AU21-AA BCSP H 5 08:50:00.50 1315.510 00:02:44 Yes
87 WŸŁØft - CA 25218-AU21-AA Kirk 18532/341 BB C 2 08:50:02.20 1315.000 00:02:45 Yes
88 Al Shulman - CA 2288-AU21-WSJ PIED H 1 08:50:03.00 1314.760 00:02:46 Yes
89 Whiskey Hollow Loft - TX 0020-AU21-WACO "Bugsy" BC H 1 08:50:05.70 1313.950 00:02:49 Yes
90 Gomez Loft - CA 4114-AU21-CHP BB H 1 08:50:08.20 1313.202 00:02:51 Yes
91 Al Shulman - CA 2296-AU21-WSJ BBSP H 2 08:50:11.00 1312.364 00:02:54 Yes
92 Endo/Wong/Kojiro - HI 1077-AU21-UIF SLT H 1 08:50:12.40 1311.946 00:02:55 Yes
93 Genesis Syndicate Loft - AZ 0207-AU21-GENS BB H 3 08:50:14.80 1311.230 00:02:58 Yes
94 Watson & Williams - NV 45153-AU21-JEDD BB H 2 08:50:16.10 1310.842 00:02:59 Yes
95 Fleet Washington - DC 2149-AU21-FLTW BB H 3 08:50:16.60 1310.693 00:03:00 Yes
96 Rachel Olivieri - CA 0208-AU21-LAKE BBWF H 1 08:50:16.70 1310.663 00:03:00 Yes
97 Cala's - NY 0109-AU21-CALA BB H 1 08:50:17.90 1310.305 00:03:01 Yes
97 Okie Shuffle Loft - WI 0429-AU21-VITA BB H 3 08:50:17.90 1310.305 00:03:01 Yes
99 Guinto-Hedderson - CA 7003-AU21-FSC BC H 2 08:50:20.40 1309.561 00:03:03 Yes
100 C and W Loft - CA 36427-AU21-JEDD BB H 2 08:50:21.80 1309.144 00:03:05 Yes

There are 181 bird records

Note: These Race Results are unofficial and subject to change until verified by the Race Committee and declared final.